Location: ????
(30.1475°N, 31.1342°E)
Time: 01:11:31
(UTC+00:00)

ARIANE 5 R/B - Pass Details

Date: 31 March 2023
Orbit: 748 x 794 km, 98.8° (Epoch: 29 May)

Event Time Altitude Azimuth Distance (km) Brightness Sun altitude
Rises 01:42:18 0° 19° (NNE) 3,282 6.3 -26.9°
Reaches altitude 10° 01:44:40 10° 24° (NNE) 2,355 5.6 -26.4°
Maximum altitude 01:49:46 54° 101° (E) 958 3.2 -25.4°
Enters shadow 01:53:27 18° 173° (S) 1,835 4.3 -24.6°
